Location: ???????
(55.3754°N, 39.3545°E)
Time: 19:37:57
(UTC+00:00)

Cosmos 1190 Rocket - Pass Details

Date: 14 April 2026
Orbit: 752 x 775 km, 74.1° (Epoch: 19 May)

Event Time Altitude Azimuth Distance (km) Brightness Sun altitude
Rises 20:39:39 0° 332° (NNW) 3,269 8.5 -24.4°
Reaches altitude 10° 20:42:04 10° 335° (NNW) 2,338 7.5 -24.4°
Maximum altitude 20:47:23 69° 59° (ENE) 834 4.1 -24.6°
Enters shadow 20:48:18 57° 113° (ESE) 916 4.1 -24.6°
